Погода в Ике

Погода в Ике : погода сейчас, прогноз погоды и архив. Всё, что Вы хотите узнать о погоде в Ике!

Хотите узнать прогноз погоды в Ике? Тогда Вам сюда: Погода в Ике

Поиск расширенной информации на нашем сайте:

Другие новости

Новости СМИ2

Главная страница сайта

Новости сайта

03.07.2017

Напоминаем, что на нашем специализированном сайте Метеоцентр.Азия вы можете получить высокодетализированные автоматические прогнозы погоды по пунктам России, СНГ и мира в авиационном формате (включающие направление и скорость ветра, видимость, явления погоды, количество и форму облачности, нижнюю и верхнюю границу облачности).


Погода в Ике - сегодня

Время (UTC), дата Ветер
(°,м/с) 
Видим.   Явления Облачность Т
(°С)
Тd
(°С)
f(%) Тe
(°С)
Pmin
(гПа)
dP
(гПа)
Po
(мм)
O2
(г/м3)
Тmin Tmax R s Состояние
почвы
03 23.07.17 320 (СЗ) 20000 м    1/0 средняя 
[Ac trans]
+21.3 +4 32 +21  1016.3  -0.4  732  273           
06 23.07.17 340 (С) 20000 м    3/1 600 м средняя 
[Cu hum|Ac lent]
+24 +6.4 32 +24  1014.4  -1.4  731  270           
09 23.07.17 270 (З) 20000 м    3/3 600 м 
[Cu hum]
+25.3 +6.8 31 +25  1013  -1.3  730  268           
12 23.07.17 270 (З) 20000 м    3/1 600 м верхняя 
[Cu hum|Ci fib]
+24.3 +6 31 +24  1012.3  -0.8  722  266    +26.5       
15 23.07.17 тихо ()   10 км    3/0 средняя, верхняя 
[Ac lent|Ci fib]
+12.2 +8.8 80 +12  1014.3  0.3  730  280           
18 23.07.17 290 (З) 10 км    4/0 средняя 
[Ac trans]
+8.7 +6.1 84 +10  1014.6  -0.1  729  284           
21 23.07.17 тихо ()   20000 м    6/3 600 м средняя, верхняя 
[Sc diur, vesp|Ac lent|Cc]
+5.4 +4.9 97 +5  1014.6  -0.6  729  287           
00 24.07.17 тихо ()   20000 м    3/0 средняя 
[Ac cast]
+15.2 +9.2 67 +16  1012.9  -0.1  729  277  +5.4         
03 24.07.17 270 (З) 10 км  дым  1/0 средняя 
[Ac trans]
+24.2 +9.6 40 +25  1009.9  -1.6  728  268           
06 24.07.17 320 (СЗ) 20000 м    8/8 600 м кучево-дожд. 
[Cb cap]
+27.8 +10.8 35 +31  1007.8  -1.7  726  264           
09 24.07.17 тихо ()   20000 м  гроза без осадков{ливн. осадки}  6/6 600 м кучево-дожд. 
[Cb cap]
+22.9 +15.7 64 +34  1007.6  -0.7  726  266           
12 24.07.17 тихо ()   20000 м  гроза без осадков{ливн. осадки}  9/6 600 м верхняя 
[Sc|Ci fib]
+17.4 +15 86 +27  1009.1  0.8  727  272    +28.3     
15 24.07.17 тихо ()   10 км  {гроза, ливн. осадки}  4/4 600 м кучево-дожд. 
[Cb cap]
+14.5 +12.5 88 +20  1010.1  0.4  719  273           
18 24.07.17 тихо ()   10 км  {гроза, ливн. осадки}  5/5 600 м 
[Sc]
+12 +12 100 +17  1012  1.7  728  279           
21 24.07.17 тихо ()   4000 м  дымка  3/0 средняя 
[Ac trans]
+8 +8 100 +8  1011.1  -0.7  727  283           
00 25.07.17 тихо ()   20000 м    3/0 средняя 
[Ac trans]
+13 +11.9 93 +17  1010.3  0.1  727  277  +8       
03 25.07.17 тихо ()   20000 м    8/8 600 м кучево-дожд. 
[Cb cap]
+20.7 +13.8 65 +28  1009.1  727  269           
06 25.07.17 020 (С) 20000 м  гроза без осадков  8/8 600 м кучево-дожд. 
[Cb cap]
+24.1 +11.8 46 +28  1007.2  -1.5  726  266           
09 25.07.17 180 (Ю) 20000 м  гроза без осадков  8/4 600 м кучево-дожд., верхняя 
[Cb cap|Ci fib]
+23.3 +11.8 48 +28  1006.9  -0.4  725  267           
12 25.07.17 тихо ()   20000 м  {гроза}  8/3 600 м кучево-дожд., верхняя 
[Cb cap|Ci fib]
+21 +15.5 71 +31  1007.1  -0.1  725  268    +25       
15 25.07.17 тихо ()   10 км    3/0 верхняя 
[Ci fib]
+13.6 +12.5 93 +19  1008.4  0.2  725  276           
18 25.07.17 тихо ()   10 км  туман на расстоянии  3/0 верхняя 
[Ci fib]
+9.3 +9.1 99 +10  1009.3  0.3  726  281           
21 25.07.17 тихо ()   0200 м  туман  ясно 
+7.8 +7.8 100 +8  1009.7  0.1  726  283           
00 26.07.17 тихо ()   4000 м  дымка{туман}  ясно 
+9.8 +9.8 100 +11  1008.8  726  280  +7.5         
03 26.07.17 160 (Ю) 10 км  дым  ясно 
+22.7 +13.7 57 +30  1006.4  -0.9  725  267           
Время (UTC), дата Ветер
(°,м/с) 
Видим.   Явления Облачность Т
(°С)
Тd
(°С)
f(%) Тe
(°С)
Pmin
(гПа)
dP
(гПа)
Po
(мм)
O2
(г/м3)
Тmin Tmax R s Состояние
почвы

Для получения пояснительной информации подведите курсор к названию столбца.

ПОГОДА в Ике - архив

Всё, что Вы хотите узнать о погоде в Ике - удобно и подробно!

Выберите нужную дату (начиная с 1 января 2015* года) и нажмите кнопку "Найти".
Будут отображены архивные сводки погоды по пункту Ика, начиная с указанной даты.


Отображать данные в формате CSV (для использования в таблицах Excel)


Внимание! Наш архив погоды предназначен исключительно для личного некоммерческого использования в познавательных целях. Если Вам необходимы официальные справки о состоянии погоды (для производственных, юридических, коммерческих и т.п. целей), обращайтесь в органы Росгидромета.

*Примечание: данная дата относится к архиву по метеостанциям СССР (Россия, СНГ, Балтия).
Архив по метеостанциям Зарубежной Европы и Азии (кроме Китая) хранится 10 дней, по другим регионам земного шара (Китай, Африка, Америка, Австралия, Океания) - 1 день.

Ика - район местоположения метеостанции


Название, широта, долгота, высота метеостанции:
Ика 59.3°ш. 106.2°д. 352 м над ур. моря [Российская Федерация]

Дополнительная информация

В oтличие oт бoльшинства пoгoдных сайтoв мы публикуем пoдрoбную метеoинфoрмацию в детальнoм прoфессиoнальнoм фoрмате.

Характеристики температуры и влажнoсти вoздуха измеряются на высoте 2 м в тени вдали oт зданий и деревьев.
Скoрoсть ветра измеряется на высoте 10 м (на урoвне рoста челoвека скoрoсть ветра ниже в 1.5-2 раза). Если метеoстанция нахoдится в гoрoде или в лесу, тo скoрoсть ветра занижена на 2-4 м/с пo сравнению с oткрытым местoм. Скoрoсть ветра над акватoриями крупных рек и oзёр, а также на вершинах хoлмoв на 2-5 м/с выше, чем в oбычных услoвиях.
Атмoсфернoе давление в разных тoчках местнoсти мoжет значительнo oтличаться oт давления на метеoстанции, в зависимoсти oт услoвий рельефа (при пoдъёме на 10 м давление пoнижается примернo на 1 мм рт.ст.).